GW3251 Weather Reports


Display with metric or nautical units.
time (UTC)temp
F
wind
direction
speed
MPH
gust
MPH
rain 1hr
in
rain 24hr
in
rain mn
in
humidity
%
barometer
mb
20260504130538 59 0 0.0 0.0 0.00 0.00 0.00 87 1015.7
20260504110538 55 0 0.0 0.0 0.00 0.00 0.00 90 1015.2
20260504100537 56 0 0.0 0.0 0.00 0.00 0.00 89 1015.5
20260504081553 58 0 0.0 0.0 0.00 0.00 0.00 85 1015.8
20260504081037 58 0 0.0 0.0 0.00 0.00 0.00 85 1016.0
20260504080538 59 0 0.0 0.0 0.00 0.00 0.00 85 1016.1
20260504050538 62 0 0.0 0.0 0.00 0.00 0.00 80 1018.0
20260504045538 62 0 0.0 1.0 0.00 0.00 0.00 79 1018.1
20260504045038 62 0 0.0 1.0 0.00 0.00 0.00 78 1018.1
20260504044549 62 0 0.0 8.0 0.00 0.00 0.00 78 1018.0
20260504044038 62 0 0.0 8.0 0.00 0.00 0.00 78 1018.2
20260504043539 63 0 0.0 7.0 0.00 0.00 0.00 78 1018.2
20260504043050 63 0 0.0 7.0 0.00 0.00 0.00 78 1018.2
20260504042539 63 0 0.0 7.0 0.00 0.00 0.00 78 1018.2
20260504042039 63 0 0.0 6.0 0.00 0.00 0.00 77 1018.3
20260504041549 63 188 0.0 5.0 0.00 0.00 0.00 77 1018.4
20260504041035 63 0 0.0 7.0 0.00 0.00 0.00 78 1018.4
20260504040537 63 0 0.0 7.0 0.00 0.00 0.00 77 1018.3
20260504040058 63 0 0.0 3.0 0.00 0.00 0.00 77 1018.3
20260504035540 63 0 0.0 6.0 0.00 0.00 0.00 77 1018.3
20260504035036 63 0 0.0 6.0 0.00 0.00 0.00 77 1018.3
20260504034606 63 0 0.0 6.0 0.00 0.00 0.00 77 1018.3
20260504034040 63 0 0.0 6.0 0.00 0.00 0.00 76 1018.3
20260504033539 63 0 0.0 6.0 0.00 0.00 0.00 77 1018.2
20260504033049 63 0 0.0 6.0 0.00 0.00 0.00 77 1018.2
20260504032539 62 0 0.0 6.0 0.00 0.00 0.00 77 1018.2
20260504032040 62 0 0.0 8.0 0.00 0.00 0.00 78 1018.0
20260504031555 61 0 0.0 8.0 0.00 0.00 0.00 80 1018.1
20260504031038 60 0 0.0 0.0 0.00 0.00 0.00 83 1018.0
20260504030540 59 0 0.0 0.0 0.00 0.00 0.00 85 1017.9
20260504030050 59 0 0.0 0.0 0.00 0.00 0.00 85 1017.9
20260504025540 59 0 0.0 0.0 0.00 0.00 0.00 85 1017.9
20260504025040 59 0 0.0 0.0 0.00 0.00 0.00 85 1017.9
20260504024549 59 0 0.0 0.0 0.00 0.00 0.00 85 1017.8
20260504024037 59 0 0.0 0.0 0.00 0.00 0.00 85 1017.8
20260504023539 60 0 0.0 0.0 0.00 0.00 0.00 85 1017.6
20260504023047 60 0 0.0 0.0 0.00 0.00 0.00 84 1017.5
20260504022537 61 0 0.0 0.0 0.00 0.00 0.00 83 1017.5
20260504022040 61 0 0.0 0.0 0.00 0.00 0.00 83 1017.5
20260504021548 61 0 0.0 0.0 0.00 0.00 0.00 83 1017.4
20260504021037 61 0 0.0 0.0 0.00 0.00 0.00 82 1017.5
20260504020540 61 0 0.0 0.0 0.00 0.00 0.00 81 1017.5
20260504020050 62 0 0.0 0.0 0.00 0.00 0.00 81 1017.7
20260504015540 62 0 0.0 0.0 0.00 0.00 0.00 79 1017.5
20260504015036 62 0 0.0 0.0 0.00 0.00 0.00 79 1017.5
20260504014606 63 0 0.0 0.0 0.00 0.00 0.00 78 1017.5
20260504014037 63 0 0.0 0.0 0.00 0.00 0.00 78 1017.5
20260504013536 64 0 0.0 0.0 0.00 0.00 0.00 77 1017.4
20260504013052 64 0 0.0 0.0 0.00 0.00 0.00 74 1017.4
20260504012539 65 0 0.0 0.0 0.00 0.00 0.00 74 1017.3
20260504012039 65 0 0.0 0.0 0.00 0.00 0.00 73 1017.3
20260504011546 66 0 0.0 0.0 0.00 0.00 0.00 72 1017.3
20260504011039 66 0 0.0 0.0 0.00 0.00 0.00 72 1017.3
20260504010539 66 0 0.0 0.0 0.00 0.00 0.00 71 1017.3
20260504010059 67 0 0.0 0.0 0.00 0.00 0.00 70 1017.3
20260504005540 67 0 0.0 0.0 0.00 0.00 0.00 71 1017.5
20260504005036 68 0 0.0 0.0 0.00 0.00 0.00 68 1017.4
20260504004552 68 0 0.0 0.0 0.00 0.00 0.00 69 1017.4
20260504004037 69 0 0.0 0.0 0.00 0.00 0.00 67 1017.4
20260504003536 69 0 0.0 0.0 0.00 0.00 0.00 65 1017.5
20260504003058 70 0 0.0 0.0 0.00 0.00 0.00 66 1017.5
20260504002536 70 0 0.0 0.0 0.00 0.00 0.00 62 1017.5
20260504002039 71 0 0.0 0.0 0.00 0.00 0.00 62 1017.6
20260504001547 72 0 0.0 0.0 0.00 0.00 0.00 59 1017.6
20260504001040 73 0 0.0 0.0 0.00 0.00 0.00 57 1017.7
20260504000540 73 0 0.0 0.0 0.00 0.00 0.00 55 1017.7
20260503235543 74 0 0.0 7.0 0.00 0.00 0.00 54 1017.7
20260503235039 74 0 0.0 7.0 0.00 0.00 0.00 54 1017.7
20260503234605 74 0 0.0 6.0 0.00 0.00 0.00 53 1017.7
20260503234036 74 0 0.0 6.0 0.00 0.00 0.00 53 1017.8
20260503233537 75 0 0.0 5.0 0.00 0.00 0.00 52 1017.9
20260503233048 75 0 0.0 8.0 0.00 0.00 0.00 50 1017.7
20260503232541 75 0 0.0 8.0 0.00 0.00 0.00 48 1017.9
20260503232036 76 0 0.0 7.0 0.00 0.00 0.00 49 1017.9
20260503231552 76 186 0.0 9.0 0.00 0.00 0.00 47 1017.8
20260503231040 77 0 0.0 11.0 0.00 0.00 0.00 47 1017.9
20260503230537 77 0 1.0 11.0 0.00 0.00 0.00 47 1017.9
20260503230059 78 0 1.0 10.0 0.00 0.00 0.00 44 1018.0
20260503225541 78 180 1.0 9.0 0.00 0.00 0.00 44 1017.9
20260503225037 78 0 1.0 9.0 0.00 0.00 0.00 46 1018.0
20260503224554 79 183 2.0 12.0 0.00 0.00 0.00 47 1018.0
20260503224039 79 0 0.0 12.0 0.00 0.00 0.00 48 1018.0
20260503223539 79 0 1.0 10.0 0.00 0.00 0.00 47 1017.9
20260503223055 79 0 0.0 7.0 0.00 0.00 0.00 47 1018.0
20260503222537 79 0 1.0 6.0 0.00 0.00 0.00 45 1018.1
20260503222036 78 0 0.0 7.0 0.00 0.00 0.00 46 1018.3
20260503221548 79 0 0.0 7.0 0.00 0.00 0.00 45 1018.2
20260503221038 80 0 1.0 7.0 0.00 0.00 0.00 43 1018.4
20260503220538 80 0 0.0 10.0 0.00 0.00 0.00 46 1018.4
20260503215538 80 0 1.0 10.0 0.00 0.00 0.00 43 1018.6
20260503215039 81 0 0.0 7.0 0.00 0.00 0.00 49 1018.7
20260503214547 80 0 0.0 8.0 0.00 0.00 0.00 44 1018.7
20260503214038 80 0 0.0 8.0 0.00 0.00 0.00 47 1018.8
20260503213539 81 0 1.0 9.0 0.00 0.00 0.00 46 1018.7
20260503213101 81 232 2.0 9.0 0.00 0.00 0.00 45 1018.9
20260503212539 81 0 0.0 10.0 0.00 0.00 0.00 49 1018.7
20260503212039 81 0 1.0 10.0 0.00 0.00 0.00 45 1018.9
20260503211553 80 198 0.0 8.0 0.00 0.00 0.00 45 1019.0
20260503211038 80 0 2.0 9.0 0.00 0.00 0.00 45 1019.2
20260503210538 81 0 1.0 9.0 0.00 0.00 0.00 46 1019.3
20260503210101 81 0 1.0 9.0 0.00 0.00 0.00 47 1019.5
20260503205538 80 0 0.0 7.0 0.00 0.00 0.00 48 1019.4
20260503205038 77 0 0.0 12.0 0.00 0.00 0.00 51 1019.6
20260503204550 78 0 1.0 12.0 0.00 0.00 0.00 52 1019.6
20260503204043 81 0 0.0 0.0 0.00 0.00 0.00 43 1019.5
20260503203538 81 0 0.0 8.0 0.00 0.00 0.00 46 1019.7
20260503203058 82 0 0.0 11.0 0.00 0.00 0.00 46 1019.8
20260503202539 81 0 1.0 11.0 0.00 0.00 0.00 50 1019.8
20260503202039 81 0 0.0 8.0 0.00 0.00 0.00 45 1020.0
20260503201549 81 0 1.0 8.0 0.00 0.00 0.00 41 1020.0
20260503201038 81 163 3.0 8.0 0.00 0.00 0.00 44 1020.2
20260503200542 81 0 0.0 8.0 0.00 0.00 0.00 41 1020.1
20260503200105 82 0 0.0 8.0 0.00 0.00 0.00 44 1020.3
20260503195539 82 0 0.0 4.0 0.00 0.00 0.00 46 1020.2
20260503195038 81 0 0.0 8.0 0.00 0.00 0.00 46 1020.3
20260503194555 82 0 0.0 11.0 0.00 0.00 0.00 47 1020.6
20260503194038 82 0 2.0 11.0 0.00 0.00 0.00 43 1020.7
20260503193538 82 157 1.0 11.0 0.00 0.00 0.00 45 1020.6
20260503193107 82 0 1.0 8.0 0.00 0.00 0.00 46 1020.9
20260503192538 80 0 0.0 5.0 0.00 0.00 0.00 45 1021.0
20260503192039 79 0 0.0 5.0 0.00 0.00 0.00 40 1021.0
20260503191552 80 0 0.0 10.0 0.00 0.00 0.00 47 1021.0
20260503191037 79 0 1.0 10.0 0.00 0.00 0.00 48 1021.2
20260503190539 79 0 0.0 7.0 0.00 0.00 0.00 46 1021.3
20260503190054 80 0 0.0 7.0 0.00 0.00 0.00 44 1021.3
20260503185536 79 0 0.0 10.0 0.00 0.00 0.00 46 1021.4
20260503185038 80 0 0.0 10.0 0.00 0.00 0.00 42 1021.4
20260503184604 79 0 0.0 6.0 0.00 0.00 0.00 47 1021.5
20260503184038 79 0 0.0 8.0 0.00 0.00 0.00 43 1021.4
20260503183539 80 0 0.0 10.0 0.00 0.00 0.00 48 1021.6
20260503183059 79 0 2.0 10.0 0.00 0.00 0.00 46 1021.7
20260503182536 80 0 0.0 10.0 0.00 0.00 0.00 42 1021.7
20260503182037 80 0 1.0 10.0 0.00 0.00 0.00 46 1021.8
20260503181607 80 0 0.0 5.0 0.00 0.00 0.00 47 1022.0
20260503181039 80 0 0.0 5.0 0.00 0.00 0.00 45 1022.1
20260503180536 79 0 0.0 5.0 0.00 0.00 0.00 50 1022.2
20260503180051 80 0 0.0 5.0 0.00 0.00 0.00 49 1022.2
20260503175540 80 0 0.0 1.0 0.00 0.00 0.00 49 1022.3
20260503175036 79 0 0.0 8.0 0.00 0.00 0.00 47 1022.4
20260503174547 79 0 0.0 8.0 0.00 0.00 0.00 51 1022.4
20260503174036 77 0 0.0 8.0 0.00 0.00 0.00 52 1022.5
20260503173539 79 0 0.0 8.0 0.00 0.00 0.00 52 1022.6
20260503173100 79 231 0.0 5.0 0.00 0.00 0.00 50 1022.6
20260503172540 78 0 0.0 8.0 0.00 0.00 0.00 53 1022.8
20260503172039 78 0 0.0 9.0 0.00 0.00 0.00 50 1022.9
20260503171553 78 215 1.0 9.0 0.00 0.00 0.00 53 1023.0
20260503171037 77 0 0.0 7.0 0.00 0.00 0.00 49 1023.0
20260503170537 77 0 0.0 7.0 0.00 0.00 0.00 56 1022.9
20260503150537 71 0 0.0 4.0 0.00 0.00 0.00 66 1023.3